409  
ASUS41 KPHI 230712  
RWRPHI  
 
REGIONAL WEATHER ROUNDUP  
NATIONAL WEATHER SERVICE MOUNT HOLLY NJ  
300 AM EDT WED AUG 23 2017  
 
NOTE: "FAIR" INDICATES FEW OR NO CLOUDS BELOW 12,000 FEET WITH NO  
SIGNIFICANT WEATHER AND/OR S TO VISIBILITY
.  
 
* = STATION DOES NOT REPORT PRECIPITATION (E.G. RAIN, SNOW, ETC.)  
OR FOG.
 
 
NJZ015>026-230800-  
SOUTHERN NEW JERSEY  
 
CITY SKY/WX TMP DP RH WIND PRES REMARKS
 
POMONA CLOUDY 77 73 87 E5 29.80F  
WILDWOOD* CLEAR 79 76 90 W9 29.81R  
MILLVILLE LGT RAIN 77 75 93 NW3 29.81R  
WRIGHTSTOWN CLEAR 73 71 95 SW8 29.77S  
MOUNT HOLLY LGT RAIN 74 74 100 SW5 29.78F  
TRENTON CLOUDY 74 72 93 W5 29.78F  
 

 
NJZ001>014-230800-  
NORTHERN NEW JERSEY  
 
CITY SKY/WX TMP DP RH WIND PRES REMARKS
 
SUSSEX CLOUDY 71 70 96 SW6 29.77S  
ANDOVER* N/A 71 69 93 S3 29.78F  
MORRISTOWN PTCLDY 72 72 100 SW5 29.77F  
NEWARK CLOUDY 73 71 93 SW9 29.76F  
TETERBORO CLOUDY 74 71 91 SW8 29.75F  
CALDWELL CLOUDY 71 71 100 CALM 29.76F  
SOMERVILLE CLOUDY 72 72 100 CALM 29.76S  
ALLAIRE* RAIN 72 70 93 SW7 29.79F  
TOMS RIVER* RAIN 72 71 97 SW9 29.80F  
 

 
PAZ043-044-047-054-055-060>062-066>071-230800-  
EASTERN PENNSYLVANIA  
 
CITY SKY/WX TMP DP RH WIND PRES REMARKS
 
PHILADELPHIA CLOUDY 76 73 91 SW12 29.79F  
NORTH PHILA CLOUDY 76 72 87 W10 29.80F  
BLUE BELL* CLOUDY 72 72 100 CALM 29.81F  
DOYLESTOWN CLOUDY 72 72 100 SW3 29.79S  
QUAKERTOWN* CLOUDY 72 72 100 CALM 29.80F  
PERKASIE* CLOUDY 72 72 100 SW5 29.81F FOG  
POTTSTOWN CLOUDY 72 72 100 VRB3 29.81F  
LANCASTER MOCLDY 74 73 97 S3 29.80F  
COATESVILLE LGT RAIN 73 72 94 CALM 29.83F  
READING CLOUDY 73 73 100 CALM 29.78F FOG  
ALLENTOWN CLOUDY 73 70 90 SW5 29.78F  
MOUNT POCONO CLOUDY 67 66 97 W12 29.83S  
HAZLETON N/A 68 64 88 W6 29.85F  
LEHIGHTON N/A 68 68 100 CALM 29.79F FOG  
WILKES BARRE CLOUDY 71 68 90 SW6 29.79F THUNDER  
 

 
DEZALL-MDZ008-012-015-019-020-230800-  
DELAWARE AND EASTERN MARYLAND  
 
CITY SKY/WX TMP DP RH WIND PRES REMARKS
 
WILMINGTON CLOUDY 75 74 96 SW3 29.80F  
DOVER PTCLDY 79 77 94 SW6 29.78F  
GEORGETOWN CLEAR 79 76 90 SW8 29.80F  
EASTON MOCLDY 82 74 77 W6 29.85S  
ABERDEEN CLOUDY 74 72 95 CALM 29.80F  
PATUXENT CLEAR 80 75 84 SW12G20 29.80F  
OCEAN CITY CLEAR 80 77 90 SW9 29.82F  
WALLOPS ISLAND CLEAR 78 76 93 SW8 29.83F  
CAMBRIDGE MOCLDY 81 75 83 W3 29.81R  
SALISBURY CLEAR 78 77 96 SW8 29.81F  
 

 
PAZ001-021-NYZ056-072-MDZ011-DCZ001-230800-  
OTHER NEARBY LOCATIONS  
 
CITY SKY/WX TMP DP RH WIND PRES REMARKS
 
HARRISBURG CLOUDY 75 72 90 NW5 29.79F  
STATE COLLEGE CLOUDY 68 65 89 CALM 29.86R  
WILLIAMSPORT CLOUDY 71 68 90 W8 29.80R  
BINGHAMTON CLOUDY 62 60 93 NW9 29.82S  
NEW YORK CITY CLOUDY 73 72 96 MISG 29.79F  
BALTIMORE MOCLDY 77 70 79 SW7 29.80F  
WASHINGTON DC CLOUDY 80 69 69 NW3 29.81F  
 

 
 
 
CLICK HERE TO GO TO PREVIOUS BULLETINS.

The Nexlab PA Page
The Nexlab NJ Page
The Nexlab DE Page
The Nexlab MD Page Main Text Page